Regional Weather Roundup
Issued by NWS

Home | Current Version | Previous Version | Text Only | Print | Product List | Glossary Off
Versions: 1 2 3 4 5 6 7 8 9 10 11 12 13 14 15 16 17 18 19 20 21 22 23 24 25 26 27 28 29 30 31 32 33 34 35 36 37 38 39 40 41 42 43 44 45 46 47 48 49 50

000
ASUS43 KIND 201659
RWRIN

WEATHER ROUNDUP FOR INDIANA
NATIONAL WEATHER SERVICE INDIANAPOLIS IN
1200 PM EST MON NOV 20 2017

NOTE: "FAIR" INDICATES FEW OR NO CLOUDS BELOW 12,000 FEET WITH NO
SIGNIFICANT WEATHER AND/OR OBSTRUCTIONS TO VISIBILITY.

* - STATION DOES NOT REPORT WEATHER SUCH AS PRECIPITATION OR FOG.

+ - STATION NOT QUALITY CONTROLLED BY THE NATIONAL WEATHER SERVICE.
    USE DATA WITH CAUTION...ESPECIALLY DEWPOINT AND RELATIVE
    HUMIDITY OBSERVATIONS.

INZ001>003-010>013-019-020-201800-
NORTHWEST INDIANA

CITY           SKY/WX    TMP DP  RH WIND       PRES   REMARKS
GARY /AIRPORT/ MOSUNNY   46  27  46 SW14G29   29.92F
KNOX *+        SUNNY     43  30  61 SW20G25   29.97F
LA PORTE +     SUNNY     44  29  57 SW15G25   29.94F
MONTICELLO +   SUNNY     44  27  51 S20       30.01F

$$

LMZ046-743>745-201800-
SOUTHERN LAKE MICHIGAN

STATION/POSITION TIME  TEMP    WIND        PRES    WAVE
                       AIR SEA DIR/SP/G            HT
                 (UTC) (F)     (DEG/KT/KT) (MB)    (FT)
BURNS HARBOR     1640   45     210/ 18/ 25 1013.5F
MICHIGAN CITY    1630   43     180/ 15/ 17   N/A

$$

INZ004-005-014>016-021>024-201800-
NORTH CENTRAL INDIANA

CITY           SKY/WX    TMP DP  RH WIND       PRES   REMARKS
ELKHART        SUNNY     43  27  52 SW15      29.96F
GOSHEN         SUNNY     45  27  49 SW16G31   29.96F
PERU/GRISSOM   SUNNY     44  29  56 SW18G29   30.02F
SOUTH BEND     SUNNY     44  28  53 SW22G28   29.95F
WARSAW +       SUNNY     45  28  53 SW13G22   29.99F

$$

INZ006>009-017-018-025>027-201800-
NORTHEAST INDIANA

CITY           SKY/WX    TMP DP  RH WIND       PRES   REMARKS
AUBURN +       SUNNY     45  27  49 SW12G18   30.01F
FORT WAYNE     MOSUNNY   44  28  53 SW21      30.03F
KENDALLVILLE + SUNNY     43  28  56 SW16G24   29.99F

$$

INZ028-029-035-036-043>045-051>053-201800-
WEST CENTRAL INDIANA

CITY           SKY/WX    TMP DP  RH WIND       PRES   REMARKS
LAFAYETTE      CLOUDY    44  28  53 SW15G23   30.04F
TERRE HAUTE    SUNNY     45  26  47 S17       30.11F

$$

INZ030>032-037>040-046>048-054>057-064-065-201800-
CENTRAL INDIANA

CITY           SKY/WX    TMP DP  RH WIND       PRES   REMARKS
COLUMBUS       MOSUNNY   39  21  48 S17       30.17F WCI  30
FRANKFORT +    CLOUDY    45  31  58 SW14G25   30.06F
GREENWOOD *+   MOSUNNY   46  26  46 S16       30.13F
INDIANAPOLIS   MOSUNNY   44  24  45 S17       30.12F
-EAGLE CREEK   SUNNY     45  24  43 SW12G20   30.10F
KOKOMO +       SUNNY     43  27  53 S21G26    30.05F
SHELBYVILLE    SUNNY     41  25  53 S16       30.13F

$$

INZ033-034-041-042-049-050-058-059-201800-
EAST CENTRAL INDIANA

CITY           SKY/WX    TMP DP  RH WIND       PRES   REMARKS
MUNCIE         SUNNY     43  24  47 S17G23    30.07F
RICHMOND +     SUNNY     36  28  75 S16       30.15F WCI  26

$$

INZ060-061-067>069-081>083-085>088-201800-
SOUTHWEST INDIANA

CITY           SKY/WX    TMP DP  RH WIND       PRES   REMARKS
EVANSVILLE     SUNNY     45  27  49 S9        30.20F
HUNTINGBURG +  SUNNY     42  25  50 S16       30.21F

$$

INZ062-063-066-070>080-084-089>092-201800-
SOUTH CENTRAL AND SOUTHEAST INDIANA

CITY           SKY/WX    TMP DP  RH WIND       PRES   REMARKS
BLOOMINGTON    SUNNY     43  23  45 S13       30.15F
MADISON *+     SUNNY     43  25  49 S9        30.22F
SEYMOUR +      SUNNY     45  25  45 S9        30.19F

$$




USA.gov is the U.S. government's official web portal to all federal, state and local government web resources and services.